Tracking 31027 objects as of 19-Jul-2025
HD Live streaming from Space Station
objects crossing your sky now

NINGXIA-1 8

Track NINGXIA-1 8 now!
10-day predictions


NORAD ID: 49020
Int'l Code: 2021-064C
Perigee: 866.9 km
Apogee: 876.7 km
Inclination: 45.0 °
Period: 102.2 minutes
Semi major axis: 7242 km
RCS: Unknown
Launch date: July 9, 2021
Source: People's Republic of China (PRC)
Launch site: Taiyaun Space Center, China (TSC)
Your satellite tracking list
FENGYUN 1C DEB
Track 1 satellite(s)




NASA's NSSDC Master Catalog

Two Line Element Set (TLE):
1 49020U 21064C   25199.87404247 -.00000096  00000-0  20849-4 0  9993
2 49020  44.9960 291.9254 0006728  94.5042 265.6563 14.08459934207254
Source of the keplerian elements: AFSPC